• In Uzbekistan
  • List of Countries
  • For 7 days
  • Water Temperature
  • Satellite Maps
  • Weather Map
  • Weather Widgets
  • user-avatar
    Login

    Hourly Weather Lezhe

    Today, 25 September, Tuesday

    Time Temperature Precipitation Wind Pressure Humidity
    00:00 +13°C° 0 mm 6 mps 742 mmHg 62%
    01:00 +12°C° 0 mm 7 mps 742 mmHg 61%
    02:00 +11°C° 0 mm 7 mps 743 mmHg 62%
    03:00 +10°C° 0 mm 7 mps 743 mmHg 62%
    04:00 +10°C° 0 mm 7 mps 743 mmHg 62%
    05:00 +10°C° 0 mm 7 mps 743 mmHg 59%
    06:00 +10°C° 0 mm 7 mps 744 mmHg 57%
    07:00 +11°C° 0 mm 7 mps 744 mmHg 54%
    08:00 +14°C° 0 mm 7 mps 744 mmHg 47%
    09:00 +16°C° 0 mm 6 mps 744 mmHg 40%
    10:00 +17°C° 0 mm 6 mps 744 mmHg 33%
    11:00 +19°C° 0 mm 6 mps 744 mmHg 31%
    12:00 +20°C° 0 mm 6 mps 744 mmHg 29%
    13:00 +21°C° 0 mm 6 mps 744 mmHg 26%
    14:00 +21°C° 0 mm 6 mps 744 mmHg 27%
    15:00 +20°C° 0 mm 6 mps 743 mmHg 28%
    16:00 +20°C° 0 mm 6 mps 743 mmHg 29%
    17:00 +17°C° 0 mm 6 mps 744 mmHg 35%
    18:00 +15°C° 0 mm 6 mps 745 mmHg 40%
    19:00 +13°C° 0 mm 6 mps 745 mmHg 45%
    20:00 +11°C° 0 mm 6 mps 746 mmHg 48%
    21:00 +10°C° 0 mm 6 mps 746 mmHg 51%
    22:00 +9°C° 0 mm 6 mps 747 mmHg 53%
    23:00 +9°C° 0 mm 6 mps 747 mmHg 54%

    Tomorrow, 26 September, Wednesday

    Time Temperature Precipitation Wind Pressure Humidity
    00:00 +8°C° 0 mm 6 mps 747 mmHg 55%
    01:00 +8°C° 0 mm 6 mps 747 mmHg 56%
    02:00 +7°C° 0 mm 6 mps 747 mmHg 57%
    03:00 +7°C° 0 mm 6 mps 747 mmHg 57%
    04:00 +7°C° 0 mm 6 mps 747 mmHg 58%
    05:00 +7°C° 0 mm 6 mps 747 mmHg 54%
    06:00 +8°C° 0 mm 6 mps 748 mmHg 50%
    07:00 +9°C° 0 mm 6 mps 748 mmHg 46%
    08:00 +11°C° 0 mm 7 mps 748 mmHg 40%
    09:00 +14°C° 0 mm 7 mps 748 mmHg 34%
    10:00 +16°C° 0 mm 7 mps 748 mmHg 28%
    11:00 +16°C° 0 mm 6 mps 748 mmHg 26%
    12:00 +17°C° 0 mm 6 mps 747 mmHg 24%
    13:00 +19°C° 0 mm 6 mps 747 mmHg 22%
    14:00 +19°C° 0 mm 6 mps 747 mmHg 23%
    15:00 +17°C° 0 mm 5 mps 747 mmHg 23%
    16:00 +17°C° 0 mm 5 mps 747 mmHg 23%
    17:00 +15°C° 0 mm 5 mps 747 mmHg 28%
    18:00 +12°C° 0 mm 5 mps 748 mmHg 33%
    19:00 +9°C° 0 mm 5 mps 748 mmHg 37%
    20:00 +8°C° 0 mm 5 mps 748 mmHg 40%
    21:00 +8°C° 0 mm 5 mps 749 mmHg 43%
    22:00 +7°C° 0 mm 5 mps 749 mmHg 46%
    23:00 +7°C° 0 mm 5 mps 749 mmHg 48%

    Day after tomorrow, 27 September, Thursday

    Time Temperature Precipitation Wind Pressure Humidity
    00:00 +6°C° 0 mm 4 mps 749 mmHg 49%
    01:00 +6°C° 0 mm 4 mps 749 mmHg 51%
    02:00 +6°C° 0 mm 4 mps 748 mmHg 50%
    03:00 +6°C° 0 mm 4 mps 748 mmHg 50%
    04:00 +6°C° 0 mm 4 mps 748 mmHg 50%
    05:00 +7°C° 0 mm 4 mps 748 mmHg 46%
    06:00 +8°C° 0 mm 4 mps 747 mmHg 43%
    07:00 +10°C° 0 mm 4 mps 747 mmHg 39%
    08:00 +12°C° 0 mm 4 mps 747 mmHg 34%
    09:00 +15°C° 0 mm 4 mps 746 mmHg 28%
    10:00 +18°C° 0 mm 4 mps 746 mmHg 23%
    11:00 +19°C° 0 mm 4 mps 745 mmHg 21%
    12:00 +20°C° 0 mm 5 mps 745 mmHg 20%
    13:00 +22°C° 0 mm 5 mps 744 mmHg 19%
    14:00 +21°C° 0 mm 5 mps 744 mmHg 21%
    15:00 +21°C° 0 mm 5 mps 743 mmHg 22%
    16:00 +20°C° 0 mm 5 mps 742 mmHg 24%
    17:00 +17°C° 0 mm 5 mps 743 mmHg 29%
    18:00 +14°C° 0 mm 4 mps 743 mmHg 34%
    19:00 +12°C° 0 mm 4 mps 743 mmHg 39%
    20:00 +11°C° 0 mm 4 mps 743 mmHg 41%
    21:00 +10°C° 0 mm 5 mps 743 mmHg 43%
    22:00 +9°C° 0 mm 5 mps 743 mmHg 45%
    23:00 +9°C° 0 mm 5 mps 742 mmHg 44%

    28 September, Friday

    Time Temperature Precipitation Wind Pressure Humidity
    00:00 +9°C° 0 mm 5 mps 742 mmHg 43%
    01:00 +9°C° 0 mm 5 mps 742 mmHg 43%
    02:00 +9°C° 0 mm 5 mps 741 mmHg 42%
    03:00 +9°C° 0 mm 5 mps 741 mmHg 41%
    04:00 +9°C° 0 mm 5 mps 741 mmHg 41%
    05:00 +10°C° 0 mm 5 mps 740 mmHg 39%
    06:00 +12°C° 0 mm 5 mps 740 mmHg 38%
    07:00 +13°C° 0 mm 5 mps 740 mmHg 37%
    08:00 +15°C° 0 mm 5 mps 740 mmHg 34%
    09:00 +18°C° 0 mm 4 mps 739 mmHg 32%
    10:00 +20°C° 0 mm 4 mps 739 mmHg 29%
    11:00 +21°C° 0 mm 4 mps 739 mmHg 29%
    12:00 +22°C° 0 mm 4 mps 738 mmHg 29%
    13:00 +23°C° 0 mm 4 mps 738 mmHg 29%
    14:00 +23°C° 0 mm 4 mps 738 mmHg 31%
    15:00 +23°C° 0 mm 4 mps 737 mmHg 33%
    16:00 +22°C° 0 mm 4 mps 737 mmHg 35%
    17:00 +20°C° 0 mm 3 mps 737 mmHg 41%
    18:00 +18°C° 0 mm 3 mps 737 mmHg 46%
    19:00 +16°C° 0 mm 3 mps 738 mmHg 51%
    20:00 +14°C° 0 mm 3 mps 738 mmHg 52%
    21:00 +14°C° 0 mm 3 mps 738 mmHg 53%
    22:00 +13°C° 0 mm 3 mps 738 mmHg 54%
    23:00 +13°C° 0 mm 3 mps 738 mmHg 55%

    29 September, Saturday

    Time Temperature Precipitation Wind Pressure Humidity
    00:00 +14°C° 0 mm 2 mps 738 mmHg 55%
    01:00 +13°C° 0 mm 2 mps 738 mmHg 55%
    02:00 +13°C° 0 mm 2 mps 737 mmHg 55%
    03:00 +13°C° 0 mm 2 mps 737 mmHg 55%
    04:00 +13°C° 0 mm 2 mps 737 mmHg 54%
    05:00 +14°C° 0 mm 2 mps 737 mmHg 52%
    06:00 +15°C° 0 mm 2 mps 737 mmHg 50%
    07:00 +16°C° 0 mm 2 mps 737 mmHg 47%
    08:00 +18°C° 0 mm 2 mps 738 mmHg 42%
    09:00 +20°C° 0 mm 2 mps 738 mmHg 36%
    10:00 +24°C° 0 mm 2 mps 738 mmHg 31%
    11:00 +24°C° 0 mm 2 mps 737 mmHg 30%
    12:00 +25°C° 0 mm 3 mps 737 mmHg 29%
    13:00 +26°C° 0 mm 3 mps 737 mmHg 28%
    14:00 +25°C° 0 mm 3 mps 737 mmHg 30%
    15:00 +25°C° 0 mm 3 mps 737 mmHg 32%
    16:00 +23°C° 0 mm 4 mps 737 mmHg 34%
    17:00 +21°C° 0 mm 3 mps 738 mmHg 40%
    18:00 +19°C° 0 mm 3 mps 738 mmHg 46%
    19:00 +17°C° 0 mm 3 mps 738 mmHg 52%
    20:00 +16°C° 0 mm 3 mps 739 mmHg 54%
    21:00 +16°C° 0 mm 3 mps 739 mmHg 55%
    22:00 +14°C° 0 mm 3 mps 739 mmHg 56%
    23:00 +14°C° 0 mm 3 mps 739 mmHg 58%

    30 September, Sunday

    Time Temperature Precipitation Wind Pressure Humidity
    00:00 +14°C° 0 mm 3 mps 739 mmHg 60%
    01:00 +14°C° 0 mm 3 mps 740 mmHg 62%
    02:00 +13°C° 0 mm 3 mps 740 mmHg 62%
    03:00 +13°C° 0 mm 3 mps 740 mmHg 63%
    04:00 +13°C° 0 mm 3 mps 740 mmHg 63%
    05:00 +14°C° 0 mm 3 mps 740 mmHg 61%
    06:00 +16°C° 0 mm 3 mps 740 mmHg 59%
    07:00 +16°C° 0 mm 3 mps 740 mmHg 57%
    08:00 +19°C° 0 mm 3 mps 740 mmHg 51%
    09:00 +21°C° 0 mm 3 mps 740 mmHg 44%
    10:00 +24°C° 0 mm 2 mps 740 mmHg 38%
    11:00 +25°C° 0 mm 2 mps 740 mmHg 36%
    12:00 +25°C° 0 mm 2 mps 740 mmHg 35%
    13:00 +26°C° 0 mm 2 mps 739 mmHg 33%
    14:00 +26°C° 0 mm 2 mps 739 mmHg 35%
    15:00 +25°C° 0 mm 2 mps 739 mmHg 37%
    16:00 +24°C° 0 mm 2 mps 739 mmHg 39%
    17:00 +21°C° 0 mm 2 mps 739 mmHg 44%
    18:00 +21°C° 0 mm 1 mps 739 mmHg 50%
    19:00 +19°C° 0 mm 1 mps 740 mmHg 55%
    20:00 +18°C° 0 mm 1 mps 740 mmHg 57%
    21:00 +18°C° 0 mm 1 mps 740 mmHg 58%
    22:00 +17°C° 0 mm 2 mps 740 mmHg 59%
    23:00 +16°C° 0 mm 2 mps 740 mmHg 60%
    Show more